CUB218 TFFF-TNCM

Flight info

Callsign CUB218
Flight time N/A
Altitude 32000
Route DCT FOF DCT GORET DCT ELOPO ULUBA1
Aircraft A320/M-SDE3FGHIRWY/LB1

Departure

Time 2026-05-05 19:38
Airport Martinique Aimé Césaire International Airport (TFFF)

Arrival

Time N/A
Airport Princess Juliana International Airport (TNCM)
Time Latitude Longitude Altitude Speed Heading
2026-05-05 19:21 14.59423 -60.99899 21 ft 0 kts 106°
2026-05-05 19:34 14.59422 -60.99898 19 ft 1 kts 116°
2026-05-05 19:34 14.59409 -60.99901 20 ft 5 kts 187°
2026-05-05 19:35 14.59296 -61.00040 20 ft 16 kts 172°
2026-05-05 19:35 14.59178 -61.00030 19 ft 18 kts 201°
2026-05-05 19:35 14.59131 -61.00171 18 ft 27 kts 259°
2026-05-05 19:35 14.59092 -61.00387 16 ft 32 kts 259°
2026-05-05 19:36 14.59049 -61.00625 17 ft 34 kts 259°
2026-05-05 19:36 14.59006 -61.00861 22 ft 34 kts 259°
2026-05-05 19:36 14.58972 -61.01073 23 ft 20 kts 264°
2026-05-05 19:36 14.59002 -61.01172 25 ft 11 kts 246°
2026-05-05 19:37 14.58966 -61.01167 25 ft 8 kts 118°
2026-05-05 19:37 14.58966 -61.01147 24 ft 2 kts 77°
2026-05-05 19:37 14.58967 -61.01142 24 ft 0 kts 78°
2026-05-05 19:37 14.58989 -61.01005 22 ft 54 kts 81°
2026-05-05 19:38 14.59093 -61.00398 17 ft 114 kts 80°
2026-05-05 19:38 14.59246 -60.99436 98 ft 150 kts 81°
2026-05-05 19:38 14.59403 -60.98435 859 ft 133 kts 85°
2026-05-05 19:38 14.59523 -60.97517 1376 ft 134 kts 82°
2026-05-05 19:39 14.59724 -60.96510 1632 ft 151 kts 75°
2026-05-05 19:39 14.60076 -60.95445 1984 ft 164 kts 74°
2026-05-05 19:39 14.60345 -60.94222 2260 ft 186 kts 83°
2026-05-05 19:39 14.60549 -60.92813 2554 ft 211 kts 82°
2026-05-05 19:40 14.60766 -60.91232 2924 ft 235 kts 83°
2026-05-05 19:40 14.61129 -60.89532 3550 ft 251 kts 67°
2026-05-05 19:40 14.62328 -60.88195 4339 ft 265 kts 31°
2026-05-05 19:40 14.64152 -60.87768 5118 ft 280 kts
2026-05-05 19:41 14.66131 -60.88136 5912 ft 289 kts 346°
2026-05-05 19:41 14.68057 -60.88792 6730 ft 294 kts 343°
2026-05-05 19:41 14.69990 -60.89497 7493 ft 297 kts 342°
2026-05-05 19:41 14.71964 -60.90158 8279 ft 299 kts 346°
2026-05-05 19:42 14.73976 -60.90748 9072 ft 301 kts 348°
2026-05-05 19:42 14.76018 -60.91278 9849 ft 303 kts 349°
2026-05-05 19:42 14.78105 -60.91776 10321 ft 317 kts 350°
2026-05-05 19:42 14.80321 -60.92276 10614 ft 333 kts 349°
2026-05-05 19:43 14.82605 -60.92781 11207 ft 338 kts 349°
2026-05-05 19:43 14.84911 -60.93290 11846 ft 340 kts 352°
2026-05-05 19:43 14.87231 -60.93804 12509 ft 342 kts 351°
2026-05-05 19:43 14.89561 -60.94353 13165 ft 345 kts 345°
2026-05-05 19:44 14.91759 -60.95391 13794 ft 351 kts 329°
2026-05-05 19:44 14.93623 -60.97050 14357 ft 358 kts 313°
2026-05-05 19:44 14.94979 -60.99231 14939 ft 365 kts 296°
2026-05-05 19:44 14.95783 -61.01731 15543 ft 368 kts 289°
2026-05-05 19:45 14.96503 -61.04282 16172 ft 369 kts 288°
2026-05-05 19:45 14.97223 -61.06835 16804 ft 370 kts 288°
2026-05-05 19:45 14.97944 -61.09388 17415 ft 371 kts 288°
2026-05-05 19:45 14.98671 -61.11956 17998 ft 373 kts 289°
2026-05-05 19:46 14.99400 -61.14532 18575 ft 375 kts 288°
2026-05-05 19:46 15.00135 -61.17127 19071 ft 377 kts 288°
2026-05-05 19:46 15.00877 -61.19745 19542 ft 381 kts 288°
2026-05-05 19:46 15.01627 -61.22387 20011 ft 384 kts 287°
2026-05-05 19:47 15.02383 -61.25051 20457 ft 388 kts 287°
2026-05-05 19:47 15.03145 -61.27736 20922 ft 391 kts 287°
2026-05-05 19:47 15.03912 -61.30451 21387 ft 394 kts 287°
2026-05-05 19:47 15.04683 -61.33181 21826 ft 398 kts 287°
2026-05-05 19:48 15.05462 -61.35942 22256 ft 402 kts 287°
2026-05-05 19:48 15.06247 -61.38733 22693 ft 406 kts 286°
2026-05-05 19:48 15.07037 -61.41544 23192 ft 408 kts 286°
2026-05-05 19:48 15.07828 -61.44371 23630 ft 411 kts 285°
2026-05-05 19:49 15.08629 -61.47224 24001 ft 414 kts 286°
2026-05-05 19:49 15.09164 -61.49126 24281 ft 415 kts 286°
2026-05-05 19:49 15.10247 -61.52969 24821 ft 417 kts 286°
2026-05-05 19:49 15.11063 -61.55857 25179 ft 420 kts 285°
2026-05-05 19:50 15.11951 -61.58751 25521 ft 423 kts 292°
2026-05-05 19:50 15.13316 -61.61469 25725 ft 431 kts 304°
2026-05-05 19:50 15.15247 -61.63872 25843 ft 439 kts 317°
2026-05-05 19:50 15.17679 -61.65816 25963 ft 446 kts 329°
2026-05-05 19:51 15.20499 -61.67190 26086 ft 452 kts 341°
2026-05-05 19:51 15.23492 -61.68271 26209 ft 458 kts 341°
2026-05-05 19:51 15.26519 -61.69367 26325 ft 464 kts 341°
2026-05-05 19:51 15.29587 -61.70484 26442 ft 469 kts 341°
2026-05-05 19:52 15.32723 -61.71629 26584 ft 474 kts 341°
2026-05-05 19:52 15.35840 -61.72773 26802 ft 476 kts 341°
2026-05-05 19:52 15.38965 -61.73923 27030 ft 478 kts 341°
2026-05-05 19:52 15.42104 -61.75078 27263 ft 480 kts 340°
2026-05-05 19:53 15.45253 -61.76237 27491 ft 482 kts 340°
2026-05-05 19:53 15.48419 -61.77401 27689 ft 484 kts 341°
2026-05-05 19:53 15.51596 -61.78564 27926 ft 485 kts 341°
2026-05-05 19:53 15.54781 -61.79729 28144 ft 487 kts 341°
2026-05-05 19:54 15.57983 -61.80901 28338 ft 488 kts 340°
2026-05-05 19:54 15.61189 -61.82075 28554 ft 489 kts 340°
2026-05-05 19:54 15.64396 -61.83251 28733 ft 490 kts 340°
2026-05-05 19:54 15.67620 -61.84433 28908 ft 491 kts 341°
2026-05-05 19:55 15.70845 -61.85615 29067 ft 492 kts 341°
2026-05-05 19:55 15.74080 -61.86802 29212 ft 493 kts 341°
2026-05-05 19:55 15.77317 -61.87988 29370 ft 494 kts 341°
2026-05-05 19:55 15.80563 -61.89178 29503 ft 495 kts 340°
2026-05-05 19:56 15.83818 -61.90374 29638 ft 496 kts 340°
2026-05-05 19:56 15.87071 -61.91572 29770 ft 497 kts 340°
2026-05-05 19:56 15.90327 -61.92772 29904 ft 497 kts 340°
2026-05-05 19:56 15.93586 -61.93973 30038 ft 497 kts 341°
2026-05-05 19:57 15.96852 -61.95174 30160 ft 498 kts 340°
2026-05-05 19:57 16.03381 -61.97575 30380 ft 498 kts 340°
2026-05-05 19:57 16.06649 -61.98777 30492 ft 498 kts 340°
2026-05-05 19:58 16.09911 -61.99979 30607 ft 497 kts 340°
2026-05-05 19:58 16.13171 -62.01183 30721 ft 497 kts 340°
2026-05-05 19:58 16.16419 -62.02383 30936 ft 494 kts 340°
2026-05-05 19:58 16.19649 -62.03574 31146 ft 492 kts 340°
2026-05-05 19:59 16.22872 -62.04763 31340 ft 490 kts 340°
2026-05-05 19:59 16.26082 -62.05945 31529 ft 489 kts 340°
2026-05-05 19:59 16.29286 -62.07125 31723 ft 488 kts 340°
2026-05-05 19:59 16.32475 -62.08303 31920 ft 486 kts 340°
2026-05-05 20:00 16.35705 -62.09499 32028 ft 486 kts 340°
2026-05-05 20:00 16.42061 -62.11855 32054 ft 485 kts 340°
2026-05-05 20:01 16.48412 -62.14206 32059 ft 484 kts 340°
2026-05-05 20:01 16.54767 -62.16555 32065 ft 484 kts 340°
2026-05-05 20:02 16.61132 -62.18869 32074 ft 484 kts 340°
2026-05-05 20:02 16.67524 -62.21096 32080 ft 484 kts 341°
2026-05-05 20:03 16.73922 -62.23309 32086 ft 485 kts 341°
2026-05-05 20:03 16.80324 -62.25544 32087 ft 485 kts 340°
2026-05-05 20:04 16.86586 -62.27747 31972 ft 457 kts 341°
2026-05-05 20:04 16.89558 -62.28794 31143 ft 448 kts 341°
2026-05-05 20:04 16.92505 -62.29835 30161 ft 446 kts 341°
2026-05-05 20:04 16.95429 -62.30868 29112 ft 442 kts 341°
2026-05-05 20:05 16.98327 -62.31886 28181 ft 436 kts 341°
2026-05-05 20:05 17.00258 -62.32565 27562 ft 432 kts 341°
2026-05-05 20:05 17.03966 -62.33870 26906 ft 414 kts 341°
2026-05-05 20:05 17.05791 -62.34513 26625 ft 405 kts 341°
2026-05-05 20:06 17.08425 -62.35440 26213 ft 393 kts 340°
2026-05-05 20:06 17.10980 -62.36340 25803 ft 381 kts 341°
2026-05-05 20:06 17.13448 -62.37211 25397 ft 369 kts 340°
2026-05-05 20:06 17.15857 -62.38060 24991 ft 363 kts 340°
2026-05-05 20:07 17.18249 -62.38904 24590 ft 363 kts 340°
2026-05-05 20:07 17.20636 -62.39748 24175 ft 360 kts 340°
2026-05-05 20:07 17.23007 -62.40588 23765 ft 361 kts 340°
2026-05-05 20:07 17.25390 -62.41428 23289 ft 362 kts 340°
2026-05-05 20:08 17.27779 -62.42272 22856 ft 361 kts 340°
2026-05-05 20:08 17.30154 -62.43108 22427 ft 360 kts 340°
2026-05-05 20:08 17.32524 -62.43940 21998 ft 359 kts 340°
2026-05-05 20:08 17.34885 -62.44772 21568 ft 358 kts 341°
2026-05-05 20:09 17.37240 -62.45605 21141 ft 357 kts 341°
2026-05-05 20:09 17.39586 -62.46437 20710 ft 356 kts 340°
2026-05-05 20:09 17.41929 -62.47266 20278 ft 354 kts 341°
2026-05-05 20:09 17.44264 -62.48089 19848 ft 353 kts 341°
2026-05-05 20:10 17.46588 -62.48908 19420 ft 352 kts 341°
2026-05-05 20:10 17.48896 -62.49721 18996 ft 350 kts 341°
2026-05-05 20:10 17.51204 -62.50535 18571 ft 348 kts 341°
2026-05-05 20:10 17.53495 -62.51347 18116 ft 347 kts 341°
2026-05-05 20:11 17.55772 -62.52155 17679 ft 344 kts 341°
2026-05-05 20:11 17.58029 -62.52957 17259 ft 341 kts 341°